Theta_e
342 339 341 339 315 312 313 314 321 317 320 325 327 326 324 327 323 317 344 346 350 349 352 350 356 355 355 353 352 353 353 352 351 350 350 351 351 351 352 352 351 350 349 351 357 355 355 355 358
334 338 339 327 310 304 310 317 317 322 324 328 328 327 326 323 334 336 337 347 350 350 352 351 354 353 353 353 353 353 352 351 350 350 350 350 349 348 348 349 348 347 348 349 352 356 356 356 356
335 338 326 317 310 305 309 318 320 325 327 327 328 331 329 326 335 337 344 347 348 349 351 351 353 354 352 352 351 352 350 349 349 349 349 349 348 346 347 345 345 345 345 346 348 350 353 353 354
328 330 328 310 307 313 317 321 323 321 326 328 328 325 333 340 337 341 345 348 346 346 348 350 352 352 350 350 350 349 349 348 347 347 347 346 345 345 345 344 343 343 343 344 345 345 346 348 351
329 326 312 311 313 319 322 324 324 325 325 324 328 324 326 337 343 343 343 344 344 344 345 345 348 348 348 348 348 347 347 347 347 346 345 344 344 343 343 343 342 341 340 340 342 343 344 343 344
324 322 309 310 314 321 324 327 329 327 327 327 326 325 326 338 339 341 341 343 344 344 345 344 345 345 344 344 344 344 343 343 343 343 343 343 343 342 342 341 341 341 341 339 339 340 341 341 340
320 317 312 314 314 319 321 330 327 328 328 329 330 322 328 333 339 338 340 340 341 342 344 345 344 343 342 340 339 338 337 336 336 335 336 338 340 343 342 341 343 342 343 342 339 339 337 337 337
325 321 311 314 312 314 325 329 331 330 326 335 335 323 321 330 338 338 337 334 334 333 333 333 333 331 330 330 334 332 331 330 331 331 333 333 335 339 340 339 340 341 341 342 343 340 336 334 335
327 316 309 312 315 318 327 325 329 331 325 325 328 327 329 333 337 334 331 328 328 327 326 325 324 327 328 325 327 332 332 332 336 333 334 335 332 332 328 337 336 337 339 341 341 339 338 337 337
320 312 313 322 322 321 327 326 327 325 322 320 322 327 330 332 333 328 325 323 323 325 327 328 332 332 330 326 333 331 329 328 333 331 332 328 333 335 330 332 336 336 336 338 340 340 341 341 335
320 314 319 321 325 326 325 326 328 322 317 321 318 319 320 321 320 319 319 321 322 327 327 326 330 330 326 325 327 326 328 328 329 331 330 331 327 328 334 333 334 338 338 333 337 337 336 336 335
318 322 323 325 327 326 324 328 323 324 320 324 323 321 319 317 316 318 319 322 323 325 328 327 327 327 330 327 326 326 324 326 325 324 331 329 324 325 328 328 329 330 333 330 331 329 329 329 329
317 323 326 328 328 327 328 323 320 319 323 325 325 322 318 315 316 319 322 325 325 327 330 327 329 331 330 329 328 326 325 324 326 324 326 324 326 322 322 323 325 327 325 324 323 327 328 329 328
316 324 325 326 326 327 323 321 324 322 324 323 322 320 317 315 319 322 325 325 326 328 328 329 327 331 333 331 329 325 326 323 322 323 322 322 322 322 320 319 320 322 324 324 324 322 322 327 326
321 313 316 324 324 323 325 319 318 323 323 321 321 321 321 320 322 322 326 326 327 329 330 328 327 329 331 330 327 324 322 320 321 323 325 321 321 320 320 318 318 319 319 324 324 322 322 320 321
314 312 305 315 318 324 322 313 320 324 322 320 320 320 319 320 321 324 327 329 330 328 328 329 327 327 326 326 326 323 324 322 322 321 319 319 318 319 317 316 316 318 321 322 321 319 317 317 319
311 305 305 308 314 317 317 315 320 323 322 319 318 319 318 319 323 326 328 329 328 327 328 326 327 324 324 324 326 326 326 325 323 320 320 319 317 316 316 315 316 317 320 322 322 320 320 318 318
308 307 308 306 311 310 309 317 320 322 321 318 318 317 317 318 321 325 327 327 326 325 327 327 324 322 322 323 321 318 318 319 319 318 317 318 317 317 317 315 316 317 321 319 319 319 320 319 318
313 312 309 310 312 310 316 316 317 320 321 317 317 317 317 318 322 323 323 324 325 325 324 324 322 323 320 317 316 315 314 316 317 321 319 319 318 318 318 316 316 316 317 318 318 318 317 316 318
314 311 309 310 313 313 315 314 317 318 319 318 317 317 316 317 319 320 322 322 323 322 324 323 321 321 320 318 318 318 317 318 317 317 318 319 319 319 316 317 316 317 316 316 317 318 315 316 319
307 310 310 307 310 316 314 310 310 316 319 319 318 318 316 318 318 319 319 320 320 320 320 321 320 320 321 321 318 318 318 316 313 314 315 317 319 319 319 318 318 318 318 315 317 317 316 313 316
305 314 312 310 308 301 311 299 302 311 314 312 313 313 316 317 317 319 318 320 319 317 320 321 320 320 319 322 319 318 315 311 314 313 316 319 320 319 318 319 318 318 319 317 317 318 317 316 312
310 315 312 311 307 307 305 303 304 309 309 310 313 313 315 317 315 316 318 318 318 318 321 320 321 320 320 321 321 318 316 315 316 317 317 320 319 320 318 318 318 318 318 318 318 318 319 316 315
317 314 311 310 309 302 306 304 297 300 306 312 314 315 315 314 316 317 318 319 318 317 317 315 318 319 321 320 320 320 317 316 315 315 315 315 315 319 319 319 318 319 318 317 317 319 318 316 316
313 307 300 297 298 295 306 300 298 309 314 314 314 313 313 315 316 316 315 315 313 314 315 315 315 316 317 318 319 319 319 318 317 317 315 315 312 315 319 319 318 318 318 318 318 319 317 317 316
307 307 299 292 295 296 304 295 301 311 314 315 315 315 316 316 316 314 314 314 313 313 315 313 314 315 317 314 317 320 320 318 316 317 317 315 316 317 321 319 319 319 319 319 318 318 318 318 316
307 304 309 302 303 297 295 301 306 311 312 312 313 315 315 314 314 314 314 314 313 314 313 313 313 315 316 316 318 320 320 319 317 319 319 318 320 317 316 319 319 320 320 319 319 317 316 316 315
308 311 302 302 293 290 294 297 297 304 307 310 313 314 315 315 313 313 313 314 315 313 314 315 316 314 315 317 316 318 317 320 319 319 319 317 320 320 318 317 318 319 320 319 318 318 316 316 316
307 306 307 306 300 294 291 294 306 305 308 307 310 313 314 314 312 311 312 311 312 313 313 315 314 314 315 316 315 320 320 318 319 318 319 320 320 319 317 316 315 317 319 320 318 318 316 317 317
311 307 308 301 298 298 298 296 309 307 307 309 309 310 313 312 313 312 311 312 311 311 312 312 314 313 314 312 318 319 320 321 321 320 320 320 318 318 317 317 317 316 318 318 317 315 317 317 316
Wind_Speed
7 8 7 5 9 7 18 17 13 17 20 20 24 24 25 18 13 8 3 20 11 15 13 15 15 16 16 15 14 13 13 12 12 12 11 12 11 12 12 12 12 13 13 14 14 10 7 8 8
7 12 9 7 8 6 10 16 17 16 16 20 20 25 26 22 18 10 14 13 18 15 12 13 17 17 17 15 13 12 13 12 11 11 11 12 12 12 12 12 13 13 13 14 14 14 10 9 6
9 12 5 7 3 6 4 16 18 8 9 14 15 20 13 7 19 8 15 13 18 15 13 14 18 17 17 17 15 13 12 11 11 11 11 11 11 10 10 11 12 12 13 13 13 13 12 7 7
7 2 6 4 17 12 11 18 16 16 19 21 22 17 8 18 9 11 14 12 16 16 16 18 19 18 19 18 18 16 14 12 11 10 10 10 9 8 8 9 9 10 10 11 11 10 9 8 6
8 5 5 14 10 20 12 18 3 19 12 16 20 15 8 13 12 14 14 14 17 13 15 16 19 19 19 18 17 16 16 15 13 11 9 7 5 5 5 6 6 7 7 8 8 9 8 7 6
6 7 4 5 16 22 18 20 26 21 17 21 21 12 6 4 12 13 12 10 15 14 13 13 17 19 19 17 16 15 14 13 12 11 9 7 4 0 2 2 3 3 4 4 5 5 6 6 5
10 3 5 11 16 20 16 18 16 16 15 18 14 11 4 9 5 7 11 15 12 14 13 9 10 14 18 15 13 13 12 11 11 11 11 11 10 9 6 0 3 3 2 1 1 2 2 2 2
10 4 2 2 10 12 16 19 16 12 14 12 12 8 6 1 4 10 12 14 16 15 15 13 10 9 9 8 9 10 9 9 8 8 10 11 13 7 7 1 3 4 4 5 5 3 3 2 3
6 6 7 15 12 12 19 19 17 19 20 13 9 11 8 0 3 8 12 11 12 12 12 10 9 4 3 3 3 5 8 8 6 1 2 7 3 4 4 3 1 2 4 3 3 2 5 7 10
7 0 6 17 17 12 21 20 17 12 17 13 13 12 7 3 2 6 9 12 13 10 11 10 7 2 4 3 1 4 4 5 4 4 5 6 6 5 4 5 6 4 2 6 5 8 10 11 7
12 9 11 12 14 17 16 18 16 18 11 9 12 10 10 11 12 12 14 11 7 5 9 11 9 9 12 8 7 5 3 3 3 6 4 5 6 8 3 3 5 6 10 3 4 4 3 7 6
12 17 10 10 11 16 16 18 17 16 12 16 15 13 12 12 10 7 7 5 4 6 7 10 12 10 9 7 6 8 6 4 4 6 5 4 4 7 7 6 6 4 3 2 4 3 2 3 4
16 14 9 8 8 16 16 16 16 18 16 15 15 14 13 11 8 3 4 7 11 8 7 7 8 7 7 6 6 7 7 6 7 7 6 5 4 7 8 9 9 7 3 2 4 3 4 5 5
19 10 7 6 11 13 18 19 10 14 14 15 16 15 15 14 13 10 7 7 7 6 6 5 7 6 7 7 7 7 6 7 8 6 9 11 8 7 7 8 9 9 4 5 6 6 4 4 6
14 22 28 4 6 9 14 11 14 17 16 16 16 14 14 13 13 10 7 8 9 9 5 6 5 11 9 9 8 7 8 7 6 4 6 8 7 7 6 7 8 6 7 6 5 6 5 5 7
17 8 8 16 14 6 17 10 16 19 16 14 16 13 14 12 13 8 12 6 10 6 8 10 11 11 11 9 7 5 4 4 5 7 8 9 9 7 9 6 7 7 5 6 6 4 5 6 5
5 9 12 7 14 16 32 19 16 12 14 13 13 13 10 13 12 12 9 6 7 9 10 10 9 10 11 10 6 5 6 4 5 5 4 7 8 9 7 8 8 6 7 5 5 5 6 5 5
14 6 19 7 8 31 39 12 20 18 13 12 14 14 10 13 11 11 8 8 8 10 8 5 8 9 9 7 8 8 8 6 5 6 6 7 6 7 6 7 8 8 4 6 6 6 5 6 6
13 15 20 15 17 8 2 18 13 13 12 14 13 14 11 10 10 14 10 10 9 7 4 8 8 8 6 7 6 7 7 6 6 2 6 8 7 6 7 6 7 6 5 6 6 5 6 6 6
20 11 7 7 4 6 15 16 15 12 11 12 15 14 10 12 10 10 9 9 6 4 6 8 8 6 5 6 4 4 6 5 3 5 6 6 6 7 8 8 8 6 6 7 5 4 5 5 4
11 11 5 7 7 10 6 8 6 3 5 8 6 8 7 11 10 11 10 8 4 7 4 8 5 4 5 4 5 4 5 6 6 6 4 5 6 8 8 7 7 7 6 6 5 5 6 6 6
9 9 9 11 14 4 10 6 3 9 11 17 14 12 5 9 12 9 9 6 7 3 2 9 5 4 3 3 5 6 5 5 3 4 4 5 6 7 7 8 7 6 4 6 5 5 5 5 5
13 15 16 21 8 6 4 2 11 11 11 13 13 14 13 9 6 10 12 6 2 3 3 8 7 4 4 4 4 5 5 5 4 4 6 3 5 4 7 7 6 7 4 5 5 5 5 5 3
9 15 23 13 5 4 5 5 12 5 13 8 11 14 13 11 12 10 8 5 2 6 8 10 7 4 6 6 5 5 6 7 5 6 4 5 4 3 5 7 7 7 6 6 6 6 6 6 0
17 19 13 13 10 2 19 14 6 11 8 12 13 10 8 8 9 10 5 5 7 6 8 8 8 8 6 6 5 5 5 7 7 5 7 6 4 5 5 6 6 6 6 7 6 3 4 4 3
21 14 10 12 13 18 15 8 5 10 15 11 9 11 8 9 10 8 5 9 10 7 7 12 8 7 6 6 5 4 3 3 5 6 4 5 4 4 4 6 6 6 6 4 6 4 4 4 4
11 12 15 16 20 9 1 3 6 11 11 9 8 5 11 8 7 7 9 9 4 6 9 8 6 6 6 5 3 5 4 6 4 5 5 2 4 6 5 6 5 5 5 6 5 4 6 5 4
15 12 11 10 9 5 9 12 6 3 10 10 10 6 6 6 7 7 5 4 5 7 8 6 5 5 7 5 3 5 6 4 5 4 6 5 4 5 5 5 6 6 5 5 5 4 2 4 2
13 18 13 7 7 4 6 5 4 11 12 11 9 9 8 10 5 6 6 9 7 10 6 4 6 6 6 5 3 4 5 5 5 6 4 4 4 5 5 5 5 6 5 4 4 4 3 3 4
20 17 14 7 9 5 2 3 8 12 12 10 10 13 12 10 8 10 9 8 5 8 5 9 6 6 7 6 5 5 6 4 4 4 5 5 4 5 6 0 4 4 5 6 6 6 4 5 4
Wind_Direction
249 231 241 323 39 41 94 85 73 69 75 72 71 73 74 49 44 75 291 124 99 75 73 73 76 84 83 80 76 73 74 71 72 71 70 68 64 60 58 54 50 48 47 42 33 66 88 95 89
263 235 233 67 60 298 86 93 73 87 106 93 84 83 64 64 71 59 63 51 83 84 79 74 72 73 74 75 77 77 75 75 73 76 77 72 66 60 58 57 54 52 49 45 44 47 62 67 80
263 266 327 90 208 220 75 88 101 96 79 92 89 52 36 360 62 69 133 102 87 84 82 76 73 70 71 69 68 70 73 74 69 68 72 74 72 68 64 60 56 53 50 48 47 45 53 60 64
256 282 73 97 203 225 98 59 78 91 99 102 111 83 85 28 60 83 69 89 85 89 80 75 72 71 70 68 67 67 61 62 65 61 59 63 63 62 61 62 58 52 51 50 46 45 52 56 58
232 42 81 234 123 115 89 105 224 75 75 62 82 86 71 40 69 67 105 86 84 79 84 78 76 71 66 64 63 63 61 58 54 49 50 55 58 60 59 60 61 56 48 47 47 48 48 48 36
93 88 320 243 99 85 76 64 78 92 95 97 94 86 67 43 62 72 76 115 88 90 83 84 86 84 76 69 65 65 62 57 50 41 30 9 357 77 142 120 79 50 58 54 51 48 52 41 27
116 148 298 359 97 88 96 89 81 100 78 49 132 96 86 38 75 123 101 85 96 94 101 106 100 98 88 78 78 71 64 57 45 30 11 352 329 297 290 58 56 44 9 326 125 122 90 72 12
117 140 323 71 299 92 83 79 67 97 58 76 19 133 121 23 72 105 84 65 65 67 66 76 65 59 53 85 99 99 91 80 57 35 3 351 8 339 278 208 28 15 348 302 261 199 190 230 239
107 107 205 171 160 145 121 94 76 76 77 52 56 72 100 347 129 111 105 107 104 97 93 83 79 71 92 102 129 154 141 137 139 99 26 320 358 339 334 56 47 360 341 7 338 286 277 273 261
83 97 250 138 129 134 116 118 127 104 92 85 79 82 105 203 270 89 83 73 62 70 99 86 69 89 177 122 190 254 34 31 3 21 17 340 343 298 288 275 216 194 237 249 257 274 274 266 258
151 203 93 80 112 99 101 102 113 119 79 106 119 104 86 67 65 75 78 82 76 49 49 56 69 45 11 20 11 2 347 18 348 358 5 34 344 316 274 247 216 190 212 247 197 240 289 335 353
161 85 95 103 107 115 104 82 56 69 112 124 125 126 116 106 106 113 103 86 91 80 66 53 56 30 23 8 17 346 340 343 13 326 345 39 350 322 339 339 338 315 334 196 210 203 210 290 294
347 88 101 115 116 107 121 91 99 105 127 126 122 117 118 119 123 125 174 170 105 82 45 55 74 63 31 3 10 334 321 350 355 348 354 2 338 16 359 348 331 323 359 21 339 297 180 197 219
217 279 106 136 105 110 107 134 103 139 142 136 137 136 138 142 149 149 147 96 90 95 66 34 106 79 47 347 7 333 343 2 347 327 44 35 13 6 354 339 333 333 356 342 334 321 326 271 244
106 41 336 79 123 152 149 130 118 149 158 148 145 154 137 141 150 155 107 77 92 80 60 16 29 46 28 1 344 347 341 340 308 338 81 34 13 356 353 335 323 314 336 322 327 323 316 311 313
57 96 187 253 340 254 227 139 148 162 158 152 151 148 147 168 114 104 89 86 80 55 44 45 33 25 18 337 320 315 305 312 341 26 37 21 359 342 333 319 304 324 311 322 301 301 310 294 303
189 224 225 297 30 295 269 129 167 165 160 163 151 155 149 114 100 102 108 114 83 64 47 36 38 18 1 324 321 317 346 339 28 36 25 14 346 341 330 324 308 299 307 294 278 291 296 287 294
233 196 202 18 37 265 283 133 156 169 172 171 158 138 147 138 131 116 134 94 81 75 56 42 40 28 342 326 1 3 350 358 24 29 17 351 311 333 318 305 300 302 273 303 320 292 282 282 272
51 57 122 161 213 321 118 150 168 161 183 156 160 157 154 143 143 93 95 116 98 86 45 56 47 34 2 357 355 354 338 346 352 18 16 354 322 324 303 284 299 307 307 284 254 282 301 301 304
18 0 348 264 328 212 216 146 167 157 176 171 168 149 139 126 134 121 113 103 103 92 63 62 65 42 14 358 346 330 327 319 264 30 340 311 344 326 326 331 319 306 314 304 306 306 291 280 259
48 300 274 259 287 254 355 118 62 5 163 108 67 75 117 140 141 141 130 117 118 67 54 78 104 57 54 341 328 340 343 335 7 355 319 341 338 341 331 342 345 332 321 307 327 299 285 276 276
234 224 314 266 252 10 336 308 300 190 174 90 80 81 219 158 152 145 133 105 70 40 70 114 112 71 48 332 324 343 316 1 322 292 297 296 358 351 338 345 339 324 325 320 306 296 284 291 281
333 342 314 300 73 253 121 60 25 203 141 131 139 169 226 179 136 93 85 94 141 95 69 108 108 68 24 323 348 334 2 317 326 337 321 351 353 331 349 349 350 347 330 310 302 290 300 302 290
318 310 297 290 231 308 72 22 33 28 248 140 186 188 209 115 100 106 103 128 192 59 40 117 100 55 25 354 341 339 341 325 331 329 301 336 322 345 353 349 339 333 328 326 314 324 316 315 50
347 328 325 341 351 49 107 82 212 298 94 127 172 140 96 111 126 97 174 200 94 48 54 81 53 32 3 346 359 360 348 322 312 13 342 332 330 347 6 342 347 349 4 348 340 5 32 14 355
320 343 359 330 306 311 46 23 47 323 65 38 84 115 93 39 115 153 78 49 37 21 60 61 35 15 3 343 346 17 332 346 345 344 339 313 343 337 338 347 350 1 1 356 18 3 47 15 30
360 344 357 342 297 35 8 132 259 217 127 142 146 187 99 140 185 72 77 71 13 23 59 48 33 5 350 332 20 346 21 346 344 318 294 308 353 339 15 344 346 355 26 17 10 20 19 20 19
357 22 342 358 11 3 131 65 12 70 41 99 117 106 142 135 115 124 73 90 49 84 95 85 36 26 325 322 310 6 330 6 327 332 337 352 15 345 349 335 3 344 8 17 5 44 24 21 349
17 15 2 76 105 295 332 58 280 20 46 22 39 139 149 114 129 97 60 73 50 90 97 54 27 357 315 335 341 3 340 345 331 320 347 15 10 0 337 345 19 342 331 4 350 329 52 23 14
50 30 17 33 63 128 187 48 279 31 30 32 13 27 52 13 24 68 69 59 41 93 55 55 19 326 306 30 319 33 354 15 357 342 353 19 30 358 315 175 348 339 324 343 11 34 16 22 349